Date,TemperatureHighF,TemperatureAvgF,TemperatureLowF,DewpointHighF,DewpointAvgF,DewpointLowF,HumidityHigh,HumidityAvg,HumidityLow,PressureMaxIn,PressureMinIn,WindSpeedMaxMPH,WindSpeedAvgMPH,GustSpeedMaxMPH,PrecipitationSumIn
2013-1-28,50.0,43.1,39.0,30.0,19.8,12.0,60,40,25,30.08,29.84,16,5,28,0.00
2013-1-29,55.0,44.1,33.0,31.0,23.8,17.0,57,45,33,30.27,30.03,11,2,14,0.00
2013-1-30,60.0,48.3,37.0,31.0,28.4,25.0,67,47,31,30.35,30.22,7,2,14,0.00
2013-1-31,62.0,52.4,41.0,34.0,32.1,29.0,65,47,34,30.31,30.17,5,1,8,0.00
2013-2-1,63.0,51.4,40.0,35.0,32.3,30.0,72,49,33,30.27,30.16,3,0,8,0.00
2013-2-2,63.0,54.1,46.0,36.0,30.4,27.0,57,41,26,30.32,30.16,5,1,8,0.00
2013-2-3,65.0,56.5,49.0,37.0,31.8,26.0,55,39,30,30.16,29.98,10,2,16,0.00
2013-2-4,65.0,54.0,45.0,35.0,29.4,26.0,58,40,25,30.11,29.98,7,1,11,0.00
2013-2-5,65.0,55.2,44.0,34.0,27.2,19.0,51,35,21,30.02,29.81,13,1,22,0.00
2013-2-6,67.0,58.1,49.0,34.0,24.5,15.0,44,28,19,30.02,29.78,13,6,24,0.00
2013-2-7,65.0,54.5,42.0,30.0,23.7,18.0,49,31,18,30.08,29.71,12,3,25,0.00
2013-2-8,55.0,47.2,39.0,30.0,24.0,20.0,57,40,29,29.72,29.64,20,9,51,0.00
2013-2-9,54.0,44.8,38.0,27.0,23.2,18.0,63,44,29,29.98,29.72,11,4,22,0.00
2013-2-10,54.0,43.6,36.0,25.0,19.5,15.0,51,38,25,30.04,29.90,15,3,22,0.00
2013-2-11,50.0,41.9,35.0,28.0,15.8,8.0,64,37,23,30.26,30.04,17,5,26,0.00
2013-2-12,52.0,41.7,31.0,21.0,15.0,10.0,43,34,24,30.40,30.26,6,1,9,0.00
2013-2-13,60.0,47.1,35.0,27.0,21.1,15.0,49,36,26,30.33,30.16,6,1,10,0.00
2013-2-14,64.0,52.0,40.0,31.0,25.5,22.0,53,37,24,30.29,30.16,11,2,21,0.00
2013-2-15,63.0,51.7,41.0,30.0,23.8,19.0,50,35,22,30.40,30.29,8,2,16,0.00
2013-2-16,64.0,52.6,42.0,28.0,22.2,19.0,45,31,21,30.35,29.98,4,0,9,0.00
2013-2-17,69.0,55.1,41.0,27.0,18.1,11.0,40,25,14,29.98,29.76,7,1,17,0.00
2013-2-18,60.0,50.5,41.0,25.0,20.7,13.0,42,31,21,30.06,29.84,5,1,10,0.00
2013-2-19,64.0,50.7,39.0,28.0,23.0,17.0,48,35,20,29.84,29.51,14,5,31,0.00
2013-2-20,55.0,46.2,40.0,36.0,29.1,25.0,77,52,36,29.84,29.48,17,5,26,0.00
2013-2-21,53.0,42.7,35.0,33.0,20.9,14.0,80,44,24,30.08,29.84,7,1,12,0.00
2013-2-22,56.0,45.1,34.0,22.0,15.1,12.0,47,30,20,30.20,30.07,9,1,16,0.00
2013-2-23,62.0,47.9,39.0,28.0,18.1,4.0,43,31,14,30.10,29.80,27,9,43,0.20
2013-2-24,53.0,44.5,38.0,15.0,11.1,7.0,33,26,16,30.24,30.07,21,10,39,0.20
2013-2-25,60.0,44.6,34.0,19.0,12.9,10.0,39,28,14,30.29,30.02,7,1,13,0.00
2013-2-26,57.0,46.2,36.0,19.0,13.8,10.0,39,27,18,30.27,30.05,14,4,29,0.00
2013-2-27,56.0,44.5,35.0,20.0,12.4,6.0,40,28,17,30.40,30.26,8,2,16,0.00
2013-2-28,64.0,49.9,36.0,19.0,12.3,6.0,33,22,15,30.44,30.33,4,1,9,0.00
2013-3-1,71.0,56.9,43.0,32.0,22.4,13.0,39,26,21,30.44,30.26,7,2,12,0.00
2013-3-2,74.0,62.0,51.0,39.0,29.6,22.0,45,30,20,30.30,29.97,12,2,22,0.00
2013-3-3,75.0,66.6,59.0,35.0,29.1,22.0,37,25,20,29.98,29.69,23,11,41,0.00
2013-3-4,70.0,59.8,49.0,37.0,32.5,25.0,57,37,25,30.03,29.75,14,3,26,0.00
2013-3-5,74.0,59.2,46.0,35.0,30.2,27.0,50,35,20,30.07,29.83,16,4,26,0.00
2013-3-6,68.0,59.3,53.0,35.0,31.0,27.0,46,35,22,29.88,29.76,24,10,53,0.00
2013-3-7,61.0,54.4,48.0,33.0,31.6,29.0,52,42,31,29.85,29.75,17,6,31,0.00
2013-3-8,52.0,46.9,42.0,41.0,35.6,32.0,81,65,50,29.82,29.64,20,6,34,0.31
2013-3-9,60.0,49.4,41.0,38.0,34.2,29.0,81,59,34,30.16,29.81,14,4,25,0.03
2013-3-10,66.0,53.8,43.0,36.0,26.3,23.0,64,36,21,30.30,30.15,12,3,23,0.01
2013-3-11,70.0,57.0,44.0,35.0,26.9,22.0,52,32,21,30.22,30.03,4,0,8,0.00
2013-3-12,75.0,61.8,50.0,39.0,30.4,25.0,51,31,20,30.15,30.03,6,1,13,0.00
2013-3-13,80.0,65.7,55.0,44.0,33.3,29.0,51,31,20,30.19,30.05,7,2,11,0.00
2013-3-14,84.0,69.6,56.0,42.0,31.8,27.0,43,25,17,30.14,29.95,5,0,8,0.00
2013-3-15,86.0,70.8,60.0,45.0,31.5,24.0,46,25,11,29.97,29.73,17,2,25,0.00
2013-3-16,83.0,73.3,61.0,36.0,26.8,13.0,28,19,9,29.77,29.62,17,5,35,0.00
2013-3-17,80.0,68.9,58.0,36.0,22.1,9.0,34,18,9,29.82,29.60,17,5,29,0.00
2013-3-18,75.0,64.8,53.0,32.0,19.2,12.0,24,17,11,29.94,29.77,9,2,19,0.00
2013-3-19,77.0,66.9,58.0,34.0,23.7,15.0,33,20,14,29.95,29.79,14,3,20,0.00
2013-3-20,75.0,68.1,63.0,36.0,31.4,23.0,33,26,20,29.92,29.69,18,8,33,0.00
2013-3-21,77.0,65.6,58.0,37.0,27.6,11.0,40,26,11,29.78,29.62,18,8,30,0.00
2013-3-22,73.0,61.5,52.0,31.0,15.2,1.0,27,17,8,29.78,29.64,10,2,19,0.00
2013-3-23,60.0,51.0,41.0,22.0,13.6,-1.0,32,23,10,30.12,29.78,17,4,31,0.00
2013-3-24,68.0,53.5,42.0,22.0,13.4,7.0,27,20,13,30.10,29.91,6,1,11,0.00
2013-3-25,73.0,59.5,48.0,30.0,19.4,13.0,27,21,15,30.00,29.82,7,2,10,0.00
2013-3-26,80.0,66.7,56.0,33.0,24.5,18.0,30,21,12,29.83,29.65,13,5,25,0.00
2013-3-27,78.0,67.5,60.0,37.0,32.6,26.0,43,28,19,29.82,29.69,19,6,30,0.00
2013-3-28,78.0,67.2,57.0,42.0,35.8,31.0,47,32,21,29.91,29.80,17,8,30,0.00
2013-3-29,83.0,70.2,57.0,41.0,33.9,26.0,41,27,19,30.01,29.87,16,5,23,0.00
2013-3-30,83.0,69.8,60.0,46.0,32.4,-99.9,48,27,18,29.97,29.84,8,2,13,0.00
2013-3-31,80.0,70.4,62.0,42.0,35.7,30.0,42,28,19,29.88,29.74,16,8,27,0.00
2013-4-1,75.0,63.8,55.0,40.0,35.9,29.0,53,37,23,29.88,29.80,21,8,35,0.00
2013-4-2,76.0,65.3,54.0,41.0,32.9,29.0,39,30,23,29.93,29.84,15,5,26,0.00
2013-4-3,81.0,67.8,55.0,44.0,35.2,30.0,53,31,19,30.03,29.88,8,2,13,0.00
2013-4-4,86.0,71.5,60.0,43.0,33.7,28.0,49,26,15,29.94,29.74,12,4,25,0.00
2013-4-5,83.0,71.0,59.0,42.0,36.3,29.0,47,30,18,29.83,29.71,18,7,32,0.00
2013-4-6,83.0,70.6,61.0,42.0,33.1,27.0,35,26,16,29.84,29.71,20,9,31,0.00
2013-4-7,85.0,72.7,62.0,39.0,32.1,24.0,35,23,12,29.76,29.42,18,9,35,0.00
2013-4-8,68.0,58.2,48.0,42.0,31.0,20.0,76,38,18,29.57,29.23,21,10,42,0.04
2013-4-9,67.0,56.2,49.0,29.0,23.5,19.0,42,28,19,30.01,29.56,23,13,42,0.03
2013-4-10,73.0,58.3,46.0,35.0,24.5,19.0,49,29,15,30.11,29.89,10,2,20,0.00
2013-4-11,80.0,64.1,53.0,36.0,25.7,19.0,40,24,15,29.90,29.64,5,1,9,0.00
2013-4-12,81.0,68.1,56.0,43.0,32.8,25.0,44,27,19,29.80,29.64,7,2,12,0.00
2013-4-13,86.0,75.5,65.0,35.0,29.9,24.0,27,19,11,29.69,29.39,18,10,35,0.00
2013-4-14,87.0,73.3,63.0,44.0,35.7,32.0,41,26,17,29.57,29.32,25,9,43,0.00
2013-4-15,78.0,66.5,58.0,36.0,30.9,25.0,36,27,17,29.49,29.32,26,16,50,0.00
2013-4-16,67.0,55.4,48.0,34.0,28.9,23.0,49,37,20,29.85,29.47,27,8,39,0.00
2013-4-17,64.0,52.9,46.0,29.0,22.0,12.0,51,31,15,30.17,29.85,20,8,33,0.00
2013-4-18,67.0,53.4,43.0,25.0,18.6,12.0,38,26,14,30.27,30.15,12,2,21,0.00
2013-4-19,77.0,62.0,48.0,28.0,18.3,11.0,37,19,11,30.21,29.86,10,3,21,0.00
2013-4-20,82.0,68.4,56.0,41.0,24.3,13.0,30,19,13,29.97,29.83,11,3,17,0.00
2013-4-21,91.0,72.3,57.0,40.0,26.2,20.0,31,19,9,29.95,29.74,12,3,21,0.00
2013-4-22,93.0,78.7,68.0,41.0,29.1,23.0,29,17,10,29.78,29.55,18,5,27,0.00
2013-4-23,74.0,64.0,55.0,28.0,21.0,12.0,26,19,13,30.00,29.62,16,6,32,0.00
2013-4-24,78.0,64.6,52.0,33.0,18.3,10.0,30,17,10,29.95,29.76,10,2,18,0.00
2013-4-25,84.0,70.1,57.0,34.0,20.7,14.0,28,16,10,29.83,29.74,13,3,27,0.00
2013-4-26,87.0,74.0,62.0,37.0,29.3,21.0,35,20,12,30.01,29.83,15,4,27,0.00
2013-4-27,90.0,75.9,61.0,39.0,25.6,19.0,35,16,9,30.04,29.82,9,2,15,0.00
2013-4-28,97.0,81.2,66.0,42.0,26.2,19.0,34,14,8,29.83,29.62,11,3,19,0.00
2013-4-29,99.0,85.0,72.0,42.0,28.1,17.0,26,13,8,29.66,29.45,16,6,28,0.00
2013-4-30,95.0,83.1,72.0,42.0,34.8,29.0,25,18,12,29.54,29.41,22,12,39,0.00
2013-5-1,80.0,70.9,60.0,34.0,16.7,4.0,21,13,9,30.20,29.54,17,10,34,0.00
2013-5-2,77.0,65.1,53.0,25.0,17.0,9.0,32,16,11,30.35,30.08,16,7,34,0.00
2013-5-3,88.0,70.5,58.0,33.0,18.0,7.0,29,14,7,30.09,29.66,8,2,17,0.00
2013-5-4,93.0,77.8,63.0,33.0,18.7,6.0,18,11,7,29.66,29.43,15,6,28,0.00
2013-5-5,81.0,73.2,65.0,31.0,25.7,19.0,28,17,10,29.66,29.50,19,10,29,0.00
2013-5-6,79.0,67.3,59.0,43.0,37.3,31.0,44,34,23,29.78,29.65,18,8,33,0.01
2013-5-7,74.0,63.1,56.0,46.0,37.9,34.0,53,40,26,29.86,29.76,19,9,32,0.01
2013-5-8,77.0,64.8,53.0,46.0,39.5,36.0,54,40,28,29.97,29.86,13,3,33,0.00
2013-5-9,78.0,67.8,58.0,46.0,41.8,37.0,50,39,27,29.94,29.86,14,4,25,0.00
2013-5-10,88.0,71.8,60.0,52.0,40.6,-99.9,61,37,17,30.01,29.90,10,2,19,0.00
2013-5-11,92.0,76.7,63.0,49.0,37.1,-99.9,42,26,14,30.04,29.91,8,2,18,0.00
2013-5-12,98.0,82.2,67.0,46.0,35.4,30.0,34,19,10,30.01,29.81,7,1,17,0.00
2013-5-13,103.0,86.7,75.0,47.0,33.0,27.0,30,15,9,29.88,29.68,12,4,22,0.00
2013-5-14,101.0,88.9,80.0,41.0,32.2,17.0,19,14,7,29.70,29.52,22,10,46,0.00
2013-5-15,98.0,83.5,69.0,49.0,34.6,27.0,29,18,12,29.70,29.57,25,9,47,0.00
2013-5-16,94.0,77.3,69.0,37.0,19.2,-99.9,27,18,10,29.63,29.50,26,14,45,0.00
2013-5-17,85.0,74.6,67.0,42.0,33.6,-99.9,34,26,19,29.73,29.55,22,11,43,0.00
2013-5-18,89.0,76.3,63.0,47.0,37.2,23.0,44,26,12,29.82,29.68,17,7,29,0.00
2013-5-19,87.0,76.1,63.0,44.0,33.8,26.0,45,22,15,29.85,29.70,18,6,28,0.00
2013-5-20,86.0,71.8,60.0,39.0,31.7,23.0,40,25,12,29.96,29.81,20,4,33,0.00
2013-5-21,95.0,79.3,63.0,46.0,29.9,21.0,43,18,7,29.82,29.51,16,6,32,0.00
2013-5-22,92.0,79.5,69.0,38.0,30.0,15.0,27,18,6,29.52,29.38,23,11,42,0.00
2013-5-23,88.0,74.5,62.0,37.0,22.1,8.0,33,16,5,29.68,29.47,20,10,38,0.00
2013-5-24,93.0,77.5,62.0,39.0,23.6,12.0,33,14,9,29.77,29.63,19,6,26,0.00
2013-5-25,93.0,78.4,66.0,38.0,26.6,18.0,27,16,7,29.73,29.64,21,9,32,0.00
2013-5-26,91.0,78.4,66.0,38.0,32.3,29.0,28,19,13,29.73,29.64,21,10,36,0.00
2013-5-27,94.0,78.7,66.0,43.0,34.1,29.0,31,21,11,29.73,29.54,25,10,39,0.00
2013-5-28,94.0,78.5,67.0,46.0,34.2,25.0,30,21,13,29.57,29.43,23,13,40,0.00
2013-5-29,94.0,78.9,65.0,43.0,36.1,25.0,37,22,13,29.66,29.46,17,3,24,0.00
2013-5-30,100.0,84.0,69.0,43.0,35.6,27.0,37,19,10,29.68,29.52,16,5,24,0.00
2013-5-31,97.0,84.2,73.0,43.0,30.0,22.0,21,14,9,29.79,29.58,20,6,31,0.00
2013-6-1,99.0,81.9,71.0,43.0,28.3,19.0,22,15,8,29.84,29.62,10,2,19,0.00
2013-6-2,106.0,86.4,72.0,47.0,29.5,19.0,34,14,7,29.63,29.42,16,4,32,0.00
2013-6-3,104.0,90.2,79.0,43.0,35.5,28.0,22,15,8,29.57,29.46,18,9,29,0.00
2013-6-4,104.0,89.8,79.0,47.0,33.6,25.0,26,14,9,29.64,29.53,16,6,32,0.00
2013-6-5,106.0,91.7,80.0,48.0,34.9,25.0,25,14,8,29.71,29.54,17,5,26,0.00
2013-6-6,107.0,93.8,79.0,51.0,37.4,28.0,29,14,10,29.67,29.51,15,4,26,0.00
2013-6-7,109.0,95.0,81.0,54.0,35.6,24.0,31,13,7,29.64,29.47,13,4,26,0.00
2013-6-8,111.0,97.6,82.0,49.0,36.1,27.0,24,12,8,29.56,29.47,20,5,33,0.00
2013-6-9,110.0,95.7,83.0,49.0,35.1,26.0,26,13,7,29.64,29.52,17,8,35,0.00
2013-6-10,101.0,89.3,80.0,46.0,33.6,22.0,23,15,8,29.61,29.49,17,8,36,0.00
2013-6-11,103.0,87.5,73.0,46.0,38.2,33.0,28,19,11,29.77,29.59,20,6,29,0.00
2013-6-12,107.0,87.7,82.0,39.0,34.6,32.0,18,15,10,29.70,29.57,14,8,25,0.00
2013-6-13,101.0,87.8,77.0,42.0,30.7,11.0,29,15,4,29.68,29.57,18,11,39,0.00
2013-6-14,103.0,88.2,76.0,44.0,19.6,7.0,18,9,4,29.69,29.53,19,8,30,0.00
2013-6-15,103.0,90.6,77.0,30.0,18.3,9.0,13,7,4,29.66,29.57,15,8,29,0.00
2013-6-16,101.0,89.6,75.0,30.0,19.6,12.0,16,8,4,29.75,29.63,15,7,26,0.00
2013-6-17,105.0,88.3,78.0,43.0,24.9,17.0,17,11,6,29.75,29.58,16,8,30,0.00
2013-6-18,103.0,88.1,79.0,33.0,28.0,23.0,16,12,6,29.62,29.45,22,12,32,0.00
2013-6-19,99.0,82.4,73.0,43.0,31.0,16.0,27,17,7,29.59,29.46,24,10,40,0.00
2013-6-20,95.0,77.9,72.0,35.0,17.4,12.0,15,10,9,29.63,29.52,26,16,36,0.00
2013-6-22,90.0,86.0,74.0,30.0,27.6,26.0,17,12,10,29.67,29.52,17,7,26,0.00
2013-6-23,102.0,86.5,79.0,37.0,32.4,25.0,21,15,9,29.56,29.40,19,10,29,0.00
2013-6-24,92.0,81.4,73.0,49.0,41.3,33.0,33,25,15,29.64,29.43,22,10,40,0.00
2013-6-25,100.0,84.5,72.0,51.0,48.0,45.0,45,30,17,29.74,29.63,19,9,33,0.00
2013-6-26,106.0,91.4,79.0,55.0,50.1,46.0,37,26,15,29.78,29.67,15,7,29,0.00
2013-6-27,107.0,92.7,85.0,52.0,47.2,42.0,32,22,14,29.84,29.70,15,6,26,0.00
2013-6-28,101.0,89.9,84.0,53.0,47.0,43.0,33,23,14,29.76,29.61,10,4,15,0.00
2013-6-29,107.0,94.8,87.0,50.0,43.2,39.0,27,17,11,29.66,29.49,16,5,23,0.00
2013-6-30,116.0,98.2,94.0,45.0,40.7,37.0,18,14,9,29.57,29.44,16,9,23,0.00
2013-7-1,113.0,99.0,89.0,57.0,48.2,45.0,25,18,13,29.62,29.51,14,6,33,0.00
2013-7-2,113.0,97.7,87.0,53.0,48.2,45.0,27,19,12,29.67,29.50,16,6,26,0.00
2013-7-3,111.0,97.5,90.0,53.0,47.3,44.0,25,19,11,29.60,29.44,17,8,30,0.00
2013-7-4,112.0,97.0,90.0,53.0,47.6,44.0,27,19,12,29.51,29.37,13,3,20,0.00
2013-7-5,110.0,97.3,86.0,59.0,50.9,45.0,34,22,13,29.53,29.41,16,6,30,0.00
2013-7-6,105.0,93.7,85.0,54.0,50.2,46.0,30,24,15,29.59,29.47,19,8,27,0.00
2013-7-7,105.0,92.4,84.0,59.0,47.0,38.0,40,22,13,29.63,29.49,11,5,21,0.00
2013-7-8,106.0,90.2,82.0,47.0,38.1,25.0,30,17,8,29.72,29.58,15,4,26,0.00
2013-7-9,108.0,93.5,87.0,38.0,32.7,26.0,15,12,8,29.80,29.67,14,8,27,0.00
2013-7-10,108.0,93.1,89.0,61.0,40.4,-99.9,33,17,12,29.71,29.56,17,7,31,0.00
2013-7-11,92.0,87.0,78.0,65.0,56.2,45.0,60,37,22,29.74,29.59,18,8,32,0.00
2013-7-12,95.0,82.4,76.0,67.0,61.2,55.0,69,50,34,29.79,29.68,10,1,18,0.00
2013-7-13,104.0,89.0,75.0,62.0,54.5,42.0,59,35,13,29.80,29.63,14,2,27,0.00
2013-7-14,105.0,93.8,84.0,58.0,50.4,42.0,33,23,19,29.73,29.58,13,6,22,0.00
2013-7-15,106.0,92.3,88.0,59.0,49.1,42.0,36,24,16,29.64,29.47,16,7,25,0.00
2013-7-16,105.0,90.7,82.0,51.0,41.8,38.0,23,19,14,29.71,29.56,17,10,31,0.00
2013-7-17,104.0,87.8,79.0,48.0,33.4,20.0,20,15,8,29.83,29.68,14,7,23,0.00
2013-7-18,109.0,90.3,83.0,51.0,31.7,21.0,23,13,8,29.75,29.59,14,6,22,0.00
2013-7-19,106.0,89.2,79.0,66.0,56.0,49.0,64,34,20,29.69,29.52,23,7,53,0.07
2013-7-20,107.0,88.6,74.0,68.0,59.7,-99.9,80,41,23,29.73,29.51,23,6,33,0.14
2013-7-21,90.0,81.6,73.0,69.0,65.1,61.0,87,58,44,29.77,29.59,23,6,38,0.14
2013-7-22,97.0,85.2,76.0,69.0,63.5,58.0,72,50,30,29.83,29.68,12,3,24,0.00
2013-7-23,98.0,85.7,76.0,67.0,61.1,58.0,61,45,33,29.83,29.69,12,3,24,0.02
2013-7-24,104.0,88.9,80.0,67.0,59.8,52.0,58,40,20,29.75,29.57,10,3,17,0.01
2013-7-25,108.0,93.4,88.0,57.0,52.2,49.0,30,25,15,29.73,29.62,16,9,28,0.00
2013-7-26,102.0,91.4,86.0,62.0,56.3,50.0,43,31,21,29.81,29.73,20,7,33,0.00
2013-7-27,94.0,84.3,75.0,68.0,62.5,58.0,65,49,35,29.88,29.67,14,4,24,0.00
2013-7-28,97.0,83.4,76.0,66.0,59.8,52.0,62,46,28,29.71,29.60,17,4,37,0.00
2013-7-29,102.0,82.9,72.0,62.0,52.9,39.0,64,41,13,29.79,29.69,10,2,20,0.00
2013-7-30,104.0,89.6,82.0,48.0,41.9,36.0,24,19,15,29.88,29.76,13,7,30,0.00
2013-7-31,106.0,89.8,79.0,57.0,50.2,45.0,44,27,13,29.85,29.66,13,4,26,0.00
2013-8-1,104.0,90.1,82.0,49.0,35.9,27.0,25,16,8,29.72,29.57,13,7,36,0.00
2013-8-2,104.0,85.4,79.0,38.0,32.7,28.0,21,16,9,29.72,29.60,13,8,27,0.00
2013-8-3,98.0,85.3,78.0,38.0,33.5,31.0,21,16,11,29.76,29.66,17,7,25,0.00
2013-8-4,101.0,87.6,78.0,46.0,36.6,31.0,29,17,11,29.74,29.63,9,4,16,0.00
2013-8-5,98.0,87.4,83.0,39.0,29.4,24.0,19,13,8,29.75,29.63,15,9,23,0.00
2013-8-6,103.0,88.8,81.0,38.0,29.4,22.0,17,12,8,29.75,29.64,17,10,26,0.00
2013-8-7,99.0,85.4,80.0,35.0,29.9,21.0,19,14,6,29.77,29.68,22,12,33,0.00
2013-8-8,96.0,82.7,75.0,37.0,32.1,28.0,24,17,10,29.74,29.63,16,9,26,0.00
2013-8-9,92.0,82.1,75.0,32.0,29.5,26.0,20,15,11,29.72,29.64,13,8,26,0.00
2013-8-10,97.0,83.8,78.0,33.0,28.4,25.0,16,14,9,29.77,29.67,17,9,26,0.00
2013-8-11,98.0,80.9,71.0,36.0,31.5,25.0,27,18,10,29.78,29.67,8,3,15,0.00
2013-8-12,88.0,80.1,72.0,33.0,29.4,24.0,23,16,10,29.75,29.70,13,5,19,0.00
2013-8-13,87.0,76.8,73.0,28.0,20.4,-99.9,19,14,10,29.80,29.71,14,4,18,0.00
2013-8-14,104.0,83.2,75.0,32.0,18.5,-99.9,21,12,6,29.79,29.64,11,4,19,0.00
2013-8-15,106.0,76.5,78.0,50.0,15.1,-99.9,23,15,11,29.79,29.64,11,4,18,0.00
2013-8-16,108.0,91.9,86.0,54.0,44.5,-99.9,29,22,15,29.76,29.61,13,6,22,0.00
2013-8-17,108.0,92.2,86.0,52.0,46.7,-99.9,28,22,13,29.73,29.57,15,9,28,0.00
2013-8-18,99.0,82.9,73.0,66.0,58.5,52.0,79,47,26,29.87,29.66,20,4,50,0.42
2013-8-19,97.0,78.7,69.0,66.0,52.4,-99.9,86,53,28,29.93,29.72,13,4,24,0.20
2013-8-20,104.0,88.9,78.0,66.0,54.1,-99.9,59,35,17,29.76,29.60,14,3,21,0.00
2013-8-21,104.0,88.7,79.0,56.0,49.4,42.0,40,27,14,29.76,29.62,12,2,22,0.00
2013-8-22,101.0,89.8,82.0,54.0,50.8,47.0,35,27,19,29.75,29.64,19,8,31,0.00
2013-8-23,94.0,81.5,74.0,63.0,58.6,49.0,67,47,26,29.76,29.62,19,6,36,0.14
2013-8-24,90.0,80.2,73.0,67.0,58.9,-99.9,73,51,33,29.78,29.68,25,4,40,0.13
2013-8-25,89.0,77.4,70.0,66.0,60.9,56.0,75,58,40,29.93,29.77,21,5,40,0.00
2013-8-26,75.0,71.6,70.0,67.0,64.0,61.0,88,77,72,29.96,29.86,9,1,17,0.07
2013-8-27,87.0,72.7,67.0,67.0,63.5,61.0,87,74,49,29.88,29.83,7,1,12,0.06
2013-8-28,100.0,88.8,81.0,67.0,61.4,57.0,59,41,27,29.80,29.70,12,2,29,0.03
2013-8-29,98.0,86.8,77.0,68.0,63.9,60.0,63,48,33,29.87,29.77,17,3,29,0.01
2013-8-30,93.0,83.4,77.0,72.0,65.7,61.0,78,56,40,29.93,29.78,17,4,29,0.00
2013-8-31,92.0,81.1,74.0,70.0,65.5,-99.9,86,61,46,29.84,29.70,12,4,24,0.44
2013-9-1,95.0,82.2,73.0,71.0,67.1,60.0,85,63,33,29.82,29.68,8,2,14,0.01
2013-9-2,99.0,86.7,76.0,68.0,63.6,58.0,70,49,30,29.82,29.65,13,4,20,0.00
2013-9-3,95.0,85.7,75.0,67.0,61.3,55.0,69,46,32,29.86,29.70,13,2,23,0.00
2013-9-4,101.0,84.8,77.0,64.0,60.0,55.0,60,45,25,29.85,29.72,23,2,46,0.01
2013-9-5,100.0,84.8,73.0,63.0,58.6,54.0,61,43,24,29.85,29.72,10,2,23,0.01
2013-9-6,100.0,84.9,78.0,63.0,57.4,54.0,53,40,23,29.78,29.69,18,6,36,0.01
2013-9-7,89.0,80.9,77.0,63.0,57.1,-99.9,56,46,35,29.84,29.73,13,2,23,0.01
2013-9-8,86.0,77.3,69.0,67.0,62.9,59.0,86,62,47,29.83,29.67,6,2,14,0.01
2013-9-9,92.0,78.3,69.0,66.0,61.7,58.0,85,60,34,29.72,29.56,16,2,34,0.05
2013-9-10,85.0,75.4,69.0,64.0,58.8,51.0,76,58,41,29.77,29.69,15,5,23,0.04
2013-9-11,83.0,73.4,67.0,62.0,58.9,52.0,81,61,46,29.88,29.77,14,3,29,0.02
2013-9-12,83.0,73.7,66.0,63.0,60.8,58.0,87,66,44,29.91,29.76,5,1,13,0.02
2013-9-13,92.0,79.1,68.0,62.0,58.4,55.0,70,51,31,29.79,29.57,7,1,18,0.01
2013-9-14,93.0,80.1,71.0,64.0,54.6,-99.9,66,44,31,29.66,29.54,5,1,10,0.00
2013-9-15,97.0,83.3,74.0,56.0,52.6,49.0,54,36,23,29.70,29.59,11,4,16,0.00
2013-9-16,99.0,85.6,74.0,58.0,51.0,46.0,46,32,18,29.73,29.57,11,3,19,0.00
2013-9-17,98.0,85.5,80.0,48.0,40.5,27.0,28,21,12,29.60,29.42,19,9,38,0.00
2013-9-18,82.0,76.8,72.0,38.0,33.7,28.0,28,21,14,29.63,29.48,18,9,37,0.00
2013-9-19,90.0,75.2,68.0,39.0,32.2,30.0,28,21,17,29.75,29.63,5,1,8,0.00
2013-9-20,92.0,77.0,67.0,42.0,34.6,31.0,40,22,12,29.74,29.57,7,1,20,0.00
2013-9-21,93.0,78.9,72.0,44.0,34.3,-99.9,32,21,10,29.64,29.43,19,7,41,0.00
2013-9-22,78.0,68.7,61.0,45.0,37.6,32.0,45,33,24,29.75,29.45,23,8,39,0.00
2013-9-23,81.0,68.7,61.0,39.0,32.9,29.0,34,27,21,29.89,29.74,8,2,14,0.00
2013-9-24,91.0,72.9,62.0,41.0,33.4,31.0,38,25,13,29.86,29.60,13,3,27,0.00
2013-9-25,85.0,76.1,68.0,39.0,34.8,27.0,33,23,12,29.60,29.34,27,16,51,0.00
2013-9-26,74.0,63.0,57.0,37.0,28.8,20.0,37,28,18,29.77,29.43,20,10,37,0.00
2013-9-27,72.0,60.2,53.0,35.0,30.3,26.0,41,33,23,30.01,29.79,11,3,20,0.00
2013-9-28,75.0,60.5,54.0,33.0,25.0,-99.9,38,28,19,30.09,29.97,4,0,7,0.00
2013-9-29,87.0,66.4,56.0,32.0,26.3,23.0,36,23,12,30.02,29.83,8,1,17,0.00
2013-9-30,79.0,69.6,60.0,34.0,28.3,23.0,34,22,16,29.86,29.71,9,3,24,0.00
2013-10-1,87.0,80.1,76.0,36.0,33.0,30.0,20,18,16,29.70,29.66,12,5,22,0.00
2013-10-2,90.0,78.8,70.0,44.0,37.4,31.0,33,23,16,29.73,29.60,16,8,27,0.00
2013-10-3,84.0,71.8,65.0,38.0,32.2,15.0,32,24,14,29.78,29.57,23,12,39,0.00
2013-10-4,68.0,58.6,53.0,29.0,24.3,19.0,31,27,21,30.23,29.91,15,8,27,0.01
2013-10-5,68.0,56.9,49.0,28.0,24.4,22.0,38,29,21,30.34,30.19,8,1,20,0.00
2013-10-6,71.0,60.2,53.0,29.0,21.6,18.0,32,23,14,30.22,29.99,5,1,8,0.00
2013-10-7,77.0,64.8,58.0,33.0,21.6,17.0,27,19,14,29.99,29.76,9,2,18,0.00
2013-10-8,83.0,70.5,64.0,27.0,22.1,18.0,20,16,11,29.76,29.52,16,8,30,0.00
2013-10-9,68.0,61.4,52.0,40.0,35.2,29.0,64,38,23,29.62,29.44,18,9,30,0.00
2013-10-10,68.0,56.9,48.0,44.0,40.1,37.0,74,55,37,29.92,29.61,16,7,24,0.00
2013-10-11,71.0,59.6,50.0,45.0,39.7,37.0,65,49,32,30.03,29.90,4,2,9,0.00
2013-10-12,77.0,63.2,52.0,44.0,36.1,-99.9,61,39,22,29.95,29.76,10,2,20,0.00
2013-10-13,74.0,64.9,57.0,37.0,33.5,30.0,42,31,21,29.95,29.69,19,7,36,0.00
2013-10-14,70.0,60.0,50.0,41.0,34.8,28.0,54,40,28,30.09,29.96,8,2,17,0.00
2013-10-15,70.0,59.7,51.0,36.0,30.1,27.0,42,33,23,30.06,29.94,14,4,28,0.00
2013-10-16,69.0,56.6,48.0,33.0,27.8,23.0,46,34,20,30.17,30.02,7,1,13,0.00
2013-10-17,72.0,56.9,48.0,29.0,24.1,21.0,37,29,19,30.04,29.88,3,0,7,0.00
2013-10-18,72.0,59.7,52.0,30.0,25.2,22.0,37,27,20,30.08,29.92,6,1,9,0.00
2013-10-19,77.0,60.9,53.0,32.0,24.0,-99.9,43,25,17,30.08,29.93,8,1,13,0.00
2013-10-20,72.0,61.8,54.0,28.0,22.4,18.0,29,22,15,29.93,29.79,9,1,15,0.00
2013-10-21,72.0,62.9,55.0,30.0,24.5,18.0,30,23,19,29.99,29.84,6,2,12,0.00
2013-10-22,79.0,64.6,55.0,32.0,27.2,24.0,34,25,17,30.03,29.90,6,1,10,0.00
2013-10-23,78.0,64.8,57.0,33.0,26.8,23.0,31,24,16,29.93,29.81,5,1,10,0.00
2013-10-24,79.0,66.8,60.0,30.0,26.0,22.0,26,21,16,29.90,29.82,2,0,6,0.00
2013-10-25,80.0,67.3,57.0,35.0,31.9,29.0,41,28,17,30.03,29.96,3,0,6,0.00
2013-10-26,79.0,64.8,58.0,36.0,28.3,-99.9,36,26,21,30.11,29.95,7,1,11,0.00
2013-10-27,83.0,69.6,59.0,34.0,28.7,26.0,34,22,14,29.95,29.46,24,6,38,0.00
2013-10-28,68.0,60.0,53.0,38.0,31.3,-99.9,46,35,27,29.70,29.36,32,14,53,0.00
2013-10-29,62.0,53.8,48.0,36.0,33.4,30.0,59,47,32,29.91,29.69,17,8,31,0.00
2013-10-30,63.0,53.0,44.0,38.0,33.3,27.0,70,48,33,30.05,29.91,10,1,13,0.00
2013-10-31,66.0,54.0,44.0,34.0,28.8,26.0,50,39,27,30.17,30.04,7,1,13,0.00
2013-11-1,70.0,58.9,49.0,37.0,31.6,27.0,51,36,26,30.21,30.06,6,1,11,0.00
2013-11-2,71.0,59.9,51.0,36.0,29.7,-99.9,51,33,24,30.08,29.76,10,2,22,0.00
2013-11-3,72.0,60.8,54.0,34.0,27.5,25.0,37,28,21,29.77,29.68,17,5,27,0.00
2013-11-4,61.0,52.4,45.0,32.0,26.8,22.0,48,37,27,29.99,29.70,7,1,15,0.00
2013-11-5,57.0,47.4,42.0,28.0,20.2,14.0,53,35,22,30.29,29.98,13,2,25,0.00
2013-11-6,63.0,50.0,41.0,23.0,19.6,17.0,44,30,20,30.38,30.28,4,0,7,0.00
2013-11-7,66.0,54.8,48.0,27.0,21.4,18.0,36,27,21,30.28,30.06,3,0,6,0.00
2013-11-8,67.0,54.0,46.0,28.0,22.3,19.0,40,29,22,30.07,29.93,2,0,6,0.00
2013-11-9,69.0,55.0,48.0,27.0,20.6,-99.9,36,27,19,30.09,29.99,4,0,6,0.00
2013-11-10,71.0,58.3,49.0,31.0,25.6,21.0,42,29,20,30.16,30.06,3,0,6,0.00
2013-11-11,73.0,61.0,51.0,33.0,26.7,23.0,45,28,19,30.17,30.08,5,1,7,0.00
2013-11-12,71.0,63.5,59.0,28.0,23.8,21.0,30,22,18,30.24,30.11,4,1,8,0.00
2013-11-13,74.0,62.3,56.0,28.0,23.7,20.0,32,23,18,30.11,29.96,2,0,6,0.00
2013-11-14,71.0,62.5,55.0,34.0,26.7,21.0,34,26,21,30.02,29.62,18,3,28,0.00
2013-11-15,70.0,62.1,53.0,34.0,27.3,23.0,39,27,20,29.61,29.49,12,2,22,0.00
2013-11-16,65.0,57.3,53.0,37.0,30.2,-99.9,45,37,28,29.77,29.55,19,11,37,0.00
2013-11-17,64.0,55.5,46.0,41.0,37.1,34.0,67,50,39,30.07,29.78,16,3,25,0.00
2013-11-18,65.0,55.4,47.0,41.0,37.8,35.0,67,52,40,30.13,29.96,11,1,17,0.00
2013-11-19,65.0,56.8,51.0,43.0,38.7,35.0,62,51,42,29.95,29.83,9,2,19,0.00
2013-11-20,64.0,55.6,49.0,42.0,39.0,35.0,66,54,38,29.84,29.73,6,1,14,0.00
2013-11-21,64.0,53.0,43.0,49.0,44.2,40.0,92,74,48,29.98,29.73,15,5,32,0.28
2013-11-22,45.0,42.8,41.0,42.0,40.3,39.0,92,90,86,30.07,29.93,12,3,20,0.28
2013-11-23,45.0,43.2,43.0,43.0,39.3,-99.9,93,89,84,30.15,30.03,11,2,18,0.25
2013-11-24,55.0,47.4,43.0,41.0,39.8,38.0,88,76,56,30.20,30.14,5,0,9,0.01
2013-11-25,58.0,48.9,41.0,39.0,37.2,36.0,84,65,44,30.29,30.19,6,1,11,0.00
2013-11-26,60.0,51.3,44.0,36.0,33.6,30.0,69,52,33,30.34,30.18,6,1,12,0.00
2013-11-27,60.0,52.1,47.0,38.0,34.8,32.0,59,52,40,30.19,30.00,6,2,12,0.00
2013-11-28,59.0,50.7,45.0,39.0,35.1,33.0,66,55,41,30.13,30.00,6,2,12,0.00
2013-12-2,60.0,50.4,43.0,38.0,34.9,31.0,68,56,36,30.21,29.76,12,2,18,0.00
2013-12-3,66.0,54.6,42.0,40.0,36.6,32.0,73,52,33,29.75,29.37,23,7,39,0.01
2013-12-4,43.0,36.8,30.0,34.0,20.3,10.0,88,54,31,30.08,29.61,15,4,29,0.03
2013-12-5,38.0,30.8,25.0,15.0,12.8,11.0,58,47,34,30.19,30.06,3,0,10,0.00
2013-12-6,39.0,31.3,25.0,18.0,15.1,12.0,63,51,39,30.28,30.11,4,1,9,0.00
2013-12-7,49.0,40.6,30.0,31.0,20.8,-99.9,63,47,26,30.09,29.75,24,9,46,0.00
2013-12-8,39.0,32.4,27.0,10.0,7.6,4.0,44,35,27,30.32,30.03,7,1,13,0.00
2013-12-9,38.0,30.1,24.0,10.0,5.3,3.0,52,35,24,30.59,30.32,11,3,30,0.00
2013-12-10,42.0,32.6,25.0,11.0,8.1,5.0,45,36,25,30.59,30.32,3,0,10,0.00
2013-12-11,49.0,38.2,30.0,20.0,14.7,10.0,49,38,28,30.45,30.34,4,0,9,0.00
2013-12-12,50.0,41.6,35.0,21.0,18.8,17.0,52,40,29,30.39,30.17,12,1,16,0.00
2013-12-13,54.0,43.2,35.0,24.0,20.9,18.0,57,42,27,30.37,30.14,4,1,8,0.00
2013-12-14,55.0,44.3,38.0,26.0,21.3,-99.9,51,42,30,30.53,30.38,8,2,16,0.00
2013-12-15,57.0,46.2,38.0,27.0,24.6,23.0,57,43,29,30.48,30.33,5,0,8,0.00
2013-12-16,62.0,50.5,42.0,31.0,26.5,24.0,56,40,27,30.37,30.25,3,0,7,0.00
2013-12-17,63.0,52.2,45.0,30.0,26.7,25.0,51,38,26,30.33,30.12,3,0,5,0.00
2013-12-18,59.0,50.8,46.0,34.0,28.5,25.0,53,42,30,30.11,29.66,9,1,14,0.00
2013-12-19,59.0,51.5,44.0,36.0,30.6,23.0,72,46,31,29.72,29.54,16,7,27,0.00
2013-12-20,53.0,46.7,40.0,36.0,26.6,16.0,72,47,32,29.87,29.72,14,5,27,0.00
2013-12-21,60.0,48.8,36.0,30.0,21.9,-99.9,47,36,29,30.05,29.80,16,4,30,0.00
2013-12-22,55.0,47.0,39.0,29.0,27.3,26.0,63,47,34,30.35,30.06,4,1,7,0.00
2013-12-23,58.0,48.1,40.0,33.0,29.5,26.0,62,49,37,30.47,30.35,5,1,7,0.00
2013-12-24,60.0,50.5,41.0,36.0,31.4,29.0,66,49,36,30.36,30.23,8,1,11,0.00
2013-12-25,58.0,48.1,41.0,29.0,24.6,16.0,56,41,26,30.44,30.31,5,1,10,0.00
2013-12-26,58.0,48.5,40.0,24.0,16.8,14.0,41,29,19,30.39,30.26,2,0,6,0.00
2013-12-27,62.0,50.0,41.0,22.0,16.9,11.0,39,27,18,30.33,30.11,2,0,5,0.00
2013-12-28,57.0,47.8,44.0,27.0,20.0,-99.9,46,34,27,30.11,29.97,5,1,8,0.00
2013-12-29,55.0,46.2,39.0,22.0,17.5,14.0,41,32,22,30.30,30.11,9,2,21,0.00
2013-12-30,56.0,45.4,37.0,21.0,15.0,12.0,39,29,20,30.36,30.24,3,0,6,0.00
2013-12-31,57.0,46.7,39.0,23.0,18.2,14.0,43,32,23,30.27,30.14,4,0,9,0.00
2014-1-1,61.0,48.8,40.0,27.0,21.7,17.0,42,34,25,30.29,30.17,3,0,7,0.00
2014-1-2,60.0,50.8,44.0,32.0,25.5,21.0,51,37,28,30.25,30.10,3,0,8,0.00